Fort Lauderdale, FL

11:41 PM EDT on April 23, 2018 (GMT -0400)
Fort Lauderdale Executive

Weather History for KFXE - October, 2013

Change the Weather History Date:

Wednesday, October 2, 2013

  Actual Average Record
Temperature  
Mean Temperature 80 °F -  
Max Temperature 84 °F 88 °F 97 °F (1980)
Min Temperature 78 °F 73 °F 60 °F (1954)
Cooling Degree Days 15    
Growing Degree Days 30 (Base 50)    
Moisture  
Dew Point 72 °F    
Average Humidity 74    
Maximum Humidity 84    
Minimum Humidity 67    
Precipitation  
Precipitation 0.00 in - - ()
Sea Level Pressure  
Sea Level Pressure 30.02 in    
Wind  
Wind Speed 11 mph (ENE)    
Max Wind Speed 17 mph    
Max Gust Speed 21 mph    
Visibility 10 miles    
Events Rain    
Averages and records for this station are not official NWS values.
T = Trace of Precipitation, MM = Missing Value Source: NWS Daily Summary

Daily Weather History Graph

Daily Weather History Graph

Search for Another Location

Airport or City:

Astronomy

Oct. 02, 2013 Rise Set
Actual Time 7:13 AM EDT 7:05 PM EDT
Civil Twilight 6:50 AM EDT 7:28 PM EDT
Nautical Twilight 6:23 AM EDT 7:55 PM EDT
Astronomical Twilight 5:57 AM EDT 8:22 PM EDT
Moon 4:56 AM EDT (10/2) 5:32 PM EDT (10/2)
Length of Visible Light 12h 38m
Length of Day
11h 52m
Waning Crescent, 6% of the Moon is Illuminated
Oct 2
Waning Crescent
Oct 4
New
Oct 11
First Quarter
Oct 18
Full
Oct 26
Last Quarter

Hourly Weather History & Observations

Time (EDT) Temp. Heat Index Dew Point Humidity Pressure Visibility Wind Dir Wind Speed Gust Speed Precip Events Conditions
12:53 AM 81.0 °F 84.9 °F 71.1 °F 72% 30.03 in 10.0 mi East 13.8 mph - N/A   Scattered Clouds
1:53 AM 81.0 °F 85.2 °F 72.0 °F 74% 30.03 in 10.0 mi East 11.5 mph - N/A   Scattered Clouds
2:53 AM 81.0 °F 85.2 °F 72.0 °F 74% 30.01 in 10.0 mi ENE 9.2 mph - N/A   Partly Cloudy
3:53 AM 81.0 °F 85.2 °F 72.0 °F 74% 29.99 in 10.0 mi ENE 11.5 mph - N/A   Scattered Clouds
4:53 AM 81.0 °F 85.8 °F 73.0 °F 77% 29.98 in 10.0 mi ENE 8.1 mph - N/A   Mostly Cloudy
5:53 AM 81.0 °F 85.8 °F 73.0 °F 77% 29.99 in 10.0 mi East 9.2 mph - 0.00 in   Mostly Cloudy
6:53 AM 81.0 °F 85.8 °F 73.0 °F 77% 29.99 in 10.0 mi NE 10.4 mph - N/A   Mostly Cloudy
7:53 AM 80.1 °F 84.5 °F 73.9 °F 81% 30.00 in 10.0 mi ENE 9.2 mph - 0.00 in   Mostly Cloudy
8:53 AM 82.0 °F 87.4 °F 73.0 °F 74% 30.02 in 10.0 mi ENE 12.7 mph - N/A   Scattered Clouds
9:53 AM 82.9 °F 88.0 °F 72.0 °F 69% 30.04 in 10.0 mi ENE 12.7 mph 20.7 mph N/A   Scattered Clouds
9:55 AM 82.4 °F 87.2 °F 71.6 °F 70% 30.03 in 10.0 mi ENE 13.8 mph 20.7 mph N/A   Mostly Cloudy
10:53 AM 82.0 °F 87.4 °F 73.0 °F 74% 30.05 in 10.0 mi ESE 17.3 mph - N/A   Mostly Cloudy
11:00 AM 78.8 °F - 73.4 °F 83% 30.04 in 10.0 mi SE 15.0 mph - N/A   Mostly Cloudy
11:53 AM 79.0 °F - 73.9 °F 84% 30.04 in 10.0 mi ENE 5.8 mph - 0.00 in Rain Light Rain
12:53 PM 82.0 °F 86.3 °F 71.1 °F 69% 30.04 in 10.0 mi ENE 12.7 mph - 0.00 in   Mostly Cloudy
1:53 PM 82.9 °F 87.5 °F 71.1 °F 67% 30.02 in 10.0 mi ENE 12.7 mph 20.7 mph N/A   Mostly Cloudy
2:53 PM 82.9 °F 87.5 °F 71.1 °F 67% 30.01 in 10.0 mi East 15.0 mph - N/A   Mostly Cloudy
3:53 PM 82.0 °F 88.6 °F 75.0 °F 79% 29.99 in 10.0 mi East 9.2 mph - 0.00 in   Mostly Cloudy
4:53 PM 82.9 °F 88.0 °F 72.0 °F 69% 29.99 in 10.0 mi East 12.7 mph - N/A   Mostly Cloudy
5:53 PM 82.0 °F 86.7 °F 72.0 °F 71% 29.99 in 10.0 mi ENE 12.7 mph - N/A   Scattered Clouds
6:53 PM 82.0 °F 86.7 °F 72.0 °F 71% 30.00 in 10.0 mi ENE 9.2 mph - N/A   Overcast
7:53 PM 81.0 °F 85.2 °F 72.0 °F 74% 30.01 in 10.0 mi NE 8.1 mph - N/A   Scattered Clouds
8:53 PM 81.0 °F 85.2 °F 72.0 °F 74% 30.02 in 10.0 mi NE 8.1 mph - N/A   Scattered Clouds
9:53 PM 81.0 °F 85.2 °F 72.0 °F 74% 30.04 in 10.0 mi ENE 6.9 mph - N/A   Scattered Clouds
10:53 PM 81.0 °F 85.8 °F 73.0 °F 77% 30.05 in 10.0 mi ENE 6.9 mph - N/A   Scattered Clouds
11:53 PM 81.0 °F 85.8 °F 73.0 °F 77% 30.05 in 10.0 mi ENE 8.1 mph - N/A   Mostly Cloudy